Location: PSU-Greenbush Astrophysical Observatory
(37.5140°N, 94.9880°W)
Time: 13:57:23
(UTC-06:00)

Transit 2A - Pass Details

Date: 27 January 2020
Orbit: 600 x 959 km, 66.7° (Epoch: 22 February)

Event Time Altitude Azimuth Distance (km) Brightness Sun altitude
Rises 19:03:38 0° 199° (SSW) 2,936 9.4 -17.1°
Reaches altitude 10° 19:05:58 10° 196° (SSW) 1,995 8.5 -17.5°
Maximum altitude 19:10:21 65° 116° (ESE) 669 5.4 -18.4°
Enters shadow 19:11:59 36° 47° (NE) 961 6.1 -18.7°
Drops below altitude 10° 19:14:38 10° 34° (NE) 1,943 - -19.2°
Sets 19:16:53 0° 31° (NNE) 2,854 - -19.6°
